Regional Weather Roundup
Issued by NWS

Home | Current Version | Previous Version | Graphics & Text | Print | Product List | Glossary On
Versions: 1 2 3 4 5 6 7 8 9 10 11 12 13 14 15 16 17 18 19 20 21 22 23 24 25 26 27 28 29 30 31 32 33 34 35 36 37 38 39 40 41 42 43 44 45 46 47 48 49 50
861
ASUS45 KBOU 201507
RWRCO

WEATHER ROUNDUP FOR COLORADO
NATIONAL WEATHER SERVICE DENVER/BOULDER CO
900 AM MDT WED SEP 20 2017

NOTE: "FAIR" INDICATES FEW OR NO CLOUDS BELOW 12000 FEET WITH NO
SIGNIFICANT WEATHER AND/OR OBSTRUCTIONS TO VISIBILITY.

COZ001>005-013-030-031-201600-
...NORTHWEST COLORADO...

CITY           SKY/WX    TMP DP  RH WIND       PRES   REMARKS
CRAIG          CLOUDY    45  35  68 E9        30.04S
HAYDEN         CLOUDY    40  36  86 SE10      30.06S
MEEKER         CLOUDY    44  39  82 CALM      30.04R
RABBIT EARS PA CLOUDY    34  32  93 W6        30.17R WCI  29
STEAMBOAT SPGS CLOUDY    37  36  96 CALM      30.07R
WALDEN         CLOUDY    34  30  86 SE5       30.08R WCI  30
$$

COZ006>008-011-201600-
...WEST CENTRAL VALLEYS...

CITY           SKY/WX    TMP DP  RH WIND       PRES   REMARKS
GRAND JUNCTION FAIR      59  38  45 SE7       29.96R
MONTROSE       FAIR      63  35  35 E5        30.03S
EAGLE          FAIR      47  32  56 CALM      30.07F
RIFLE          FAIR      50  37  61 CALM      30.01S
DELTA          FAIR      62  34  35 E8        30.00S
NUCLA          FAIR      64  30  27 S10       30.06F
$$

COZ017>023-064>068-201600-
...SOUTHWEST COLORADO...

CITY           SKY/WX    TMP DP  RH WIND       PRES   REMARKS
DURANGO        FAIR      51  28  41 CALM      30.13R
CORTEZ         FAIR      56  33  42 CALM      30.08R
PAGOSA SPRINGS FAIR      52  21  30 CALM      30.19S
TELLURIDE      FAIR      53  30  41 CALM      30.22S
WOLF CREEK PAS NOT AVBL
$$

COZ009-010-012-014-032>034-037-058>063-201600-
...CENTRAL COLORADO...

CITY           SKY/WX    TMP DP  RH WIND       PRES   REMARKS
ASPEN          FAIR      51  33  50 CALM      30.06F
BUENA VISTA    FAIR      58  25  28 SE13      30.09S
COPPER MTN     FAIR      45  25  45 S7G25     30.26S
BERTHOUD PASS  FAIR      34  27  75 SW9G24    30.27R WCI  26
COTTONWOOD PAS FAIR      54  21  28 SW12G26   30.19R
GUNNISON       FAIR      48  28  46 CALM      30.14S
KREMMLING      FAIR      48  34  57 CALM      30.09S
LEADVILLE      FAIR      48  23  37 SW8       30.16S
MONARCH PASS   FAIR      36  27  69 W36G46    30.39R
SALIDA         FAIR      56  29  35 E9G18     30.16R
SUNLIGHT       FAIR      39  28  65 SW16G24   30.23R
WILKERSON PASS FAIR      43  25  49 S10G22    30.26S
$$

COZ069>075-201600-
...SAN LUIS VALLEY/SANGRE DE CRISTO MOUNTAINS...

CITY           SKY/WX    TMP DP  RH WIND       PRES   REMARKS
ALAMOSA        FAIR      55  28  35 SW15      30.14R
DEL NORTE      FAIR      56  25  30 W8        30.16R
LA VETA PASS   FAIR      48  21  34 MISG      30.37R
SAGUACHE       FAIR      48  27  43 NW3       30.17R
$$

COZ035-036-038>040-201600-
...NORTHERN COLORADO FRONT RANGE...

CITY           SKY/WX    TMP DP  RH WIND       PRES   REMARKS
DENVER INTL AP FAIR      56  30  37 SE23G30   29.99S
DMNS CITY PARK   N/A     52  35  50 SE6       29.98F
AURORA         MOSUNNY   53  32  44 SE16      29.99F
FRONT RANGE AP MOSUNNY   55  32  41 MISG      30.00F
ERIE MUNI ARPT FAIR      55  31  39 S7        30.04F
BOULDER MUN AP FAIR      52  32  46 CALM      29.99F
CENTENNIAL     FAIR      52  32  46 CALM      29.99F
BROOMFIELD     MOSUNNY   50  32  50 CALM      30.00F
FORT COLLINS   FAIR      52  34  50 S12       30.00F
LONGMONT       FAIR      56  34  42 CALM      30.01S
$$

COZ041-046-047-076>085-087-088-201600-
...PIKES PEAK/PALMER DIVIDE AND SOUTHERN FOOTHILLS...

CITY           SKY/WX    TMP DP  RH WIND       PRES   REMARKS
COLO. SPRINGS  FAIR      52  32  46 S17       30.11R
A. F. ACADEMY  FAIR      49  30  46 E3        30.08R
SCHRIEVER AFB  FAIR      49  30  47 S16       30.11R
CHEYENNE MTN   NOT AVBL
ELLICOTT         N/A    N/A N/A N/A SW14      30.10R
FALCON         FAIR      48  29  49 S21G29    30.12R
FORT CARSON    FAIR      54  31  42 S21       30.08R
LIMON          FAIR      53  28  38 S10       30.07R
MONUMENT HILL  FAIR      50  30  46 S28G35    30.06R
CANON CITY     SUNNY     54  34  47 NE3       30.09R
WALSENBURG     FAIR      55  36  47 SE9       30.11R
TRINIDAD       FAIR      55  31  39 E6        30.09S
$$

COZ042>045-048>051-090-091-201600-
...NORTHEAST COLORADO...

CITY           SKY/WX    TMP DP  RH WIND       PRES   REMARKS
GREELEY ARPT   FAIR      53  36  52 SE7       30.01S
AKRON          FAIR      56  26  31 SE6       30.01S
BURLINGTON     FAIR      61  28  28 NE8       30.02R
WRAY           FAIR      57  32  38 W3        30.00S
YUMA           FAIR      55  28  35 CALM      30.00S
STERLING       FAIR      57  36  44 W8        29.98S
HOLYOKE        NOT AVBL
FORT MORGAN    FAIR      53  30  40 S7        30.02R
$$

COZ086-089-092>099-201600-
...SOUTHEAST COLORADO...

CITY           SKY/WX    TMP DP  RH WIND       PRES   REMARKS
PUEBLO         FAIR      56  32  40 CALM      30.08R
LA JUNTA       FAIR      58  33  39 W9        30.06R
LAMAR          FAIR      58  35  42 NW8       30.02R
SPRINGFIELD    NOT AVBL
$$




USA.gov is the U.S. government's official web portal to all federal, state and local government web resources and services.